N6060E MYGF-MYAT

Flight info

Callsign N6060E
Flight time N/A
Altitude 1500
Route DCT
Aircraft B36T/L-SDE3FGHIRWY/S

Departure

Time 2026-04-29 14:04
Airport Grand Bahama International Airport (MYGF)

Arrival

Time N/A
Airport Treasure Cay Airport (MYAT)
Time Latitude Longitude Altitude Speed Heading
2026-04-29 13:55 26.54921 -78.70537 8 ft 0 kts 181°
2026-04-29 14:01 26.54914 -78.70541 8 ft 7 kts 234°
2026-04-29 14:01 26.54927 -78.70615 8 ft 6 kts 304°
2026-04-29 14:01 26.54955 -78.70663 10 ft 16 kts 303°
2026-04-29 14:02 26.54975 -78.70748 8 ft 6 kts 272°
2026-04-29 14:02 26.54976 -78.70832 8 ft 15 kts 270°
2026-04-29 14:02 26.54979 -78.70955 8 ft 13 kts 272°
2026-04-29 14:02 26.55022 -78.71017 8 ft 11 kts
2026-04-29 14:03 26.55100 -78.71012 8 ft 13 kts
2026-04-29 14:03 26.55175 -78.70950 9 ft 15 kts 61°
2026-04-29 14:03 26.55379 -78.70553 54 ft 102 kts 64°
2026-04-29 14:03 26.55820 -78.69754 420 ft 136 kts 60°
2026-04-29 14:04 26.56340 -78.68855 659 ft 140 kts 59°
2026-04-29 14:04 26.56840 -78.67877 707 ft 149 kts 63°
2026-04-29 14:04 26.57342 -78.66888 708 ft 141 kts 62°
2026-04-29 14:04 26.57837 -78.65970 754 ft 140 kts 61°
2026-04-29 14:05 26.58362 -78.65027 680 ft 147 kts 58°
2026-04-29 14:05 26.59058 -78.64133 681 ft 156 kts 47°
2026-04-29 14:05 26.59814 -78.63305 675 ft 151 kts 46°
2026-04-29 14:05 26.60576 -78.62499 621 ft 151 kts 46°
2026-04-29 14:06 26.61359 -78.61721 613 ft 149 kts 44°
2026-04-29 14:06 26.62139 -78.60970 683 ft 146 kts 42°
2026-04-29 14:06 26.62952 -78.60276 700 ft 149 kts 35°
2026-04-29 14:06 26.63865 -78.59712 640 ft 151 kts 27°
2026-04-29 14:07 26.64807 -78.59180 581 ft 149 kts 31°
2026-04-29 14:07 26.65692 -78.58609 685 ft 144 kts 32°
2026-04-29 14:07 26.66452 -78.57941 875 ft 141 kts 55°
2026-04-29 14:07 26.66798 -78.56925 938 ft 141 kts 83°
2026-04-29 14:08 26.66910 -78.55821 952 ft 145 kts 83°
2026-04-29 14:08 26.67084 -78.54699 858 ft 149 kts 82°
2026-04-29 14:08 26.67253 -78.53572 781 ft 148 kts 84°
2026-04-29 14:08 26.67402 -78.52441 720 ft 145 kts 84°
2026-04-29 14:09 26.67500 -78.51339 745 ft 143 kts 87°
2026-04-29 14:09 26.67494 -78.50231 806 ft 141 kts 99°
2026-04-29 14:09 26.67270 -78.49174 897 ft 141 kts 106°
2026-04-29 14:09 26.66993 -78.48118 992 ft 142 kts 109°
2026-04-29 14:10 26.66692 -78.47055 964 ft 144 kts 107°
2026-04-29 14:10 26.66402 -78.45973 960 ft 145 kts 109°
2026-04-29 14:10 26.66079 -78.44918 995 ft 142 kts 110°
2026-04-29 14:10 26.65760 -78.43869 991 ft 143 kts 109°
2026-04-29 14:11 26.65397 -78.42824 973 ft 145 kts 112°
2026-04-29 14:11 26.65047 -78.41763 997 ft 145 kts 110°
2026-04-29 14:11 26.64689 -78.40717 1045 ft 142 kts 114°
2026-04-29 14:11 26.64238 -78.39746 1127 ft 139 kts 120°
2026-04-29 14:12 26.63816 -78.38759 1196 ft 142 kts 110°
2026-04-29 14:12 26.63489 -78.37723 1324 ft 140 kts 109°
2026-04-29 14:12 26.63325 -78.36667 1396 ft 144 kts 72°
2026-04-29 14:12 26.64090 -78.35967 1077 ft 138 kts 33°
2026-04-29 14:13 26.64842 -78.35423 853 ft 123 kts 38°
2026-04-29 14:13 26.65370 -78.34794 707 ft 98 kts 73°
2026-04-29 14:13 26.65189 -78.34223 639 ft 84 kts 161°
2026-04-29 14:13 26.64584 -78.34365 367 ft 94 kts 199°
2026-04-29 14:14 26.64051 -78.34771 156 ft 94 kts 229°
2026-04-29 14:14 26.63644 -78.35323 45 ft 88 kts 229°
2026-04-29 14:14 26.63277 -78.35825 27 ft 79 kts 229°
2026-04-29 14:14 26.62945 -78.36278 13 ft 72 kts 229°
2026-04-29 14:15 26.62700 -78.36604 10 ft 15 kts 227°
2026-04-29 14:15 26.62627 -78.36580 10 ft 20 kts 140°
2026-04-29 14:15 26.62575 -78.36532 11 ft 10 kts 138°
2026-04-29 14:15 26.62576 -78.36507 11 ft 0 kts 47°
2026-04-29 14:16 26.62577 -78.36506 12 ft 2 kts 43°
2026-04-29 14:17 26.62595 -78.36553 11 ft 15 kts 326°
2026-04-29 14:17 26.62670 -78.36623 10 ft 8 kts 320°
2026-04-29 14:17 26.62690 -78.36630 10 ft 0 kts 24°
2026-04-29 14:17 26.62739 -78.36566 9 ft 34 kts 51°
2026-04-29 14:18 26.63030 -78.36160 54 ft 87 kts 52°
2026-04-29 14:18 26.63262 -78.35531 232 ft 97 kts 114°
2026-04-29 14:18 26.62714 -78.35168 517 ft 93 kts 155°
2026-04-29 14:18 26.62318 -78.34602 795 ft 101 kts 106°
2026-04-29 14:19 26.62281 -78.33726 817 ft 125 kts 87°
2026-04-29 14:19 26.62424 -78.32749 835 ft 130 kts 81°
2026-04-29 14:19 26.62589 -78.31747 888 ft 133 kts 81°
2026-04-29 14:19 26.62751 -78.30689 764 ft 136 kts 83°
2026-04-29 14:20 26.62877 -78.29645 725 ft 133 kts 85°
2026-04-29 14:20 26.62967 -78.28622 707 ft 133 kts 86°
2026-04-29 14:20 26.63041 -78.27645 878 ft 121 kts 86°
2026-04-29 14:20 26.63091 -78.26718 1020 ft 120 kts 89°
2026-04-29 14:21 26.63127 -78.25770 1063 ft 124 kts 89°
2026-04-29 14:21 26.63237 -78.24819 1093 ft 127 kts 83°
2026-04-29 14:21 26.63397 -78.23816 1123 ft 140 kts 80°
2026-04-29 14:21 26.63625 -78.22698 1140 ft 153 kts 78°
2026-04-29 14:22 26.63862 -78.21511 1139 ft 159 kts 79°
2026-04-29 14:22 26.64077 -78.20286 1116 ft 162 kts 82°
2026-04-29 14:22 26.64267 -78.19038 1086 ft 165 kts 82°
2026-04-29 14:22 26.64421 -78.17765 1087 ft 164 kts 83°
2026-04-29 14:23 26.64582 -78.16497 990 ft 166 kts 83°
2026-04-29 14:23 26.64705 -78.15230 894 ft 164 kts 87°
2026-04-29 14:23 26.64792 -78.14002 810 ft 150 kts 88°
2026-04-29 14:23 26.64875 -78.12898 755 ft 138 kts 86°
2026-04-29 14:24 26.64941 -78.11839 712 ft 133 kts 90°
2026-04-29 14:24 26.64946 -78.10821 708 ft 131 kts 91°
2026-04-29 14:24 26.64992 -78.09804 693 ft 132 kts 86°
2026-04-29 14:24 26.65058 -78.08775 697 ft 130 kts 90°
2026-04-29 14:25 26.65105 -78.07764 698 ft 132 kts 85°
2026-04-29 14:25 26.65190 -78.06739 653 ft 133 kts 86°
2026-04-29 14:25 26.65262 -78.05706 571 ft 133 kts 85°
2026-04-29 14:25 26.65390 -78.04700 530 ft 129 kts 81°
2026-04-29 14:26 26.65588 -78.03719 517 ft 129 kts 77°
2026-04-29 14:26 26.65783 -78.02744 506 ft 129 kts 86°
2026-04-29 14:26 26.65814 -78.01742 468 ft 128 kts 91°
2026-04-29 14:26 26.65804 -78.00752 441 ft 127 kts 93°
2026-04-29 14:27 26.65733 -77.99787 507 ft 121 kts 99°
2026-04-29 14:27 26.65579 -77.98849 435 ft 127 kts 103°
2026-04-29 14:27 26.65390 -77.97920 504 ft 118 kts 104°
2026-04-29 14:28 26.64997 -77.96077 403 ft 123 kts 103°
2026-04-29 14:28 26.64765 -77.95162 353 ft 122 kts 108°
2026-04-29 14:28 26.64484 -77.94280 381 ft 120 kts 112°
2026-04-29 14:28 26.64083 -77.93463 367 ft 120 kts 124°
2026-04-29 14:29 26.63590 -77.92728 377 ft 119 kts 133°
2026-04-29 14:29 26.63034 -77.92067 463 ft 116 kts 130°
2026-04-29 14:29 26.62463 -77.91409 518 ft 123 kts 136°
2026-04-29 14:29 26.61834 -77.90758 557 ft 123 kts 137°
2026-04-29 14:30 26.61168 -77.90137 459 ft 126 kts 139°
2026-04-29 14:30 26.60502 -77.89531 517 ft 120 kts 139°
2026-04-29 14:30 26.59831 -77.88956 449 ft 124 kts 142°
2026-04-29 14:30 26.59140 -77.88390 499 ft 119 kts 141°
2026-04-29 14:31 26.58499 -77.87826 542 ft 119 kts 141°
2026-04-29 14:31 26.57787 -77.87304 481 ft 125 kts 149°
2026-04-29 14:31 26.57011 -77.86906 508 ft 125 kts 155°
2026-04-29 14:31 26.56222 -77.86563 517 ft 114 kts 156°
2026-04-29 14:32 26.55531 -77.86230 395 ft 104 kts 145°
2026-04-29 14:32 26.55102 -77.85687 236 ft 85 kts 120°
2026-04-29 14:32 26.54860 -77.85130 43 ft 79 kts 113°
2026-04-29 14:32 26.54674 -77.84641 6 ft 49 kts 117°
2026-04-29 14:33 26.54690 -77.84685 4 ft 1 kts 112°
2026-04-29 14:33 26.54689 -77.84682 3 ft 0 kts 113°
2026-04-29 14:35 26.54578 -77.84483 7 ft 68 kts 124°
2026-04-29 14:35 26.54268 -77.83917 212 ft 99 kts 117°
2026-04-29 14:36 26.53876 -77.83067 390 ft 139 kts 117°
2026-04-29 14:36 26.53461 -77.82092 1016 ft 106 kts 107°
2026-04-29 14:36 26.53193 -77.81107 1216 ft 149 kts 106°
2026-04-29 14:36 26.52894 -77.79978 1376 ft 153 kts 108°
2026-04-29 14:37 26.52491 -77.78894 1491 ft 145 kts 119°
2026-04-29 14:37 26.51969 -77.77978 1746 ft 129 kts 124°
2026-04-29 14:37 26.51439 -77.77169 1894 ft 131 kts 130°
2026-04-29 14:37 26.50829 -77.76413 1983 ft 134 kts 132°
2026-04-29 14:38 26.50197 -77.75614 1966 ft 143 kts 131°
2026-04-29 14:38 26.49517 -77.74765 1809 ft 149 kts 130°
2026-04-29 14:38 26.48893 -77.73844 1654 ft 149 kts 126°
2026-04-29 14:38 26.48280 -77.72905 1519 ft 150 kts 126°
2026-04-29 14:39 26.47667 -77.71975 1450 ft 148 kts 126°
2026-04-29 14:39 26.47055 -77.71072 1417 ft 143 kts 126°
2026-04-29 14:39 26.46461 -77.70177 1416 ft 143 kts 126°
2026-04-29 14:39 26.45863 -77.69276 1414 ft 145 kts 126°
2026-04-29 14:40 26.45259 -77.68383 1411 ft 143 kts 126°
2026-04-29 14:40 26.44663 -77.67495 1410 ft 142 kts 126°
2026-04-29 14:40 26.44086 -77.66628 1411 ft 140 kts 129°
2026-04-29 14:40 26.43317 -77.65973 1407 ft 140 kts 150°
2026-04-29 14:41 26.42461 -77.65461 1407 ft 140 kts 150°
2026-04-29 14:41 26.41600 -77.64943 1405 ft 141 kts 150°
2026-04-29 14:41 26.40737 -77.64424 1407 ft 141 kts 150°
2026-04-29 14:41 26.39866 -77.63897 1408 ft 143 kts 150°
2026-04-29 14:42 26.38989 -77.63360 1407 ft 144 kts 149°
2026-04-29 14:42 26.38110 -77.62823 1409 ft 144 kts 150°
2026-04-29 14:42 26.37235 -77.62289 1413 ft 143 kts 150°
2026-04-29 14:42 26.36361 -77.61764 1411 ft 142 kts 150°
2026-04-29 14:43 26.35496 -77.61251 1409 ft 140 kts 150°
2026-04-29 14:43 26.34635 -77.60735 1407 ft 140 kts 150°
2026-04-29 14:43 26.33777 -77.60211 1405 ft 141 kts 150°
2026-04-29 14:43 26.32917 -77.59689 1404 ft 140 kts 150°
2026-04-29 14:44 26.32052 -77.59162 1404 ft 142 kts 150°
2026-04-29 14:44 26.31178 -77.58637 1408 ft 144 kts 150°
2026-04-29 14:44 26.30295 -77.58098 1413 ft 145 kts 150°
2026-04-29 14:44 26.29405 -77.57557 1412 ft 145 kts 150°
2026-04-29 14:45 26.28514 -77.57016 1414 ft 146 kts 150°
2026-04-29 14:45 26.27622 -77.56477 1413 ft 146 kts 150°
2026-04-29 14:45 26.26733 -77.55939 1413 ft 145 kts 150°
2026-04-29 14:45 26.25856 -77.55406 1413 ft 145 kts 150°
2026-04-29 14:46 26.24974 -77.54873 1405 ft 144 kts 150°
2026-04-29 14:46 26.24096 -77.54341 1402 ft 144 kts 150°
2026-04-29 14:46 26.23217 -77.53814 1403 ft 144 kts 150°
2026-04-29 14:46 26.22333 -77.53279 1404 ft 145 kts 150°
2026-04-29 14:47 26.21451 -77.52740 1407 ft 145 kts 151°
2026-04-29 14:47 26.20574 -77.52203 1409 ft 144 kts 150°
2026-04-29 14:47 26.19695 -77.51670 1409 ft 144 kts 150°
2026-04-29 14:47 26.18810 -77.51133 1412 ft 144 kts 150°
2026-04-29 14:48 26.17925 -77.50600 1409 ft 144 kts 149°
2026-04-29 14:48 26.17044 -77.50081 1408 ft 143 kts 150°
2026-04-29 14:48 26.16168 -77.49561 1410 ft 143 kts 150°
2026-04-29 14:48 26.15286 -77.49032 1410 ft 144 kts 150°
2026-04-29 14:49 26.14400 -77.48507 1412 ft 144 kts 150°
2026-04-29 14:49 26.13530 -77.47983 1413 ft 143 kts 150°
2026-04-29 14:49 26.12648 -77.47451 1412 ft 145 kts 150°
2026-04-29 14:49 26.11758 -77.46914 1413 ft 146 kts 150°
2026-04-29 14:50 26.10868 -77.46373 1411 ft 146 kts 149°
2026-04-29 14:50 26.09974 -77.45843 1409 ft 145 kts 150°
2026-04-29 14:50 26.09089 -77.45319 1410 ft 144 kts 150°
2026-04-29 14:50 26.08201 -77.44798 1411 ft 145 kts 150°
2026-04-29 14:51 26.07310 -77.44267 1407 ft 146 kts 151°
2026-04-29 14:51 26.06418 -77.43728 1408 ft 145 kts 150°
2026-04-29 14:51 26.05532 -77.43202 1408 ft 143 kts 149°
2026-04-29 14:51 26.04654 -77.42691 1407 ft 142 kts 150°
2026-04-29 14:52 26.03780 -77.42170 1410 ft 142 kts 150°
2026-04-29 14:52 26.02922 -77.41647 1409 ft 143 kts 150°
2026-04-29 14:52 26.02038 -77.41114 1408 ft 142 kts 150°
2026-04-29 14:52 26.01173 -77.40594 1411 ft 144 kts 150°
2026-04-29 14:53 26.00289 -77.40049 1420 ft 147 kts 147°
2026-04-29 14:53 25.99387 -77.39487 1421 ft 149 kts 146°
2026-04-29 14:53 25.98780 -77.38596 1295 ft 150 kts 105°
2026-04-29 14:53 25.98548 -77.37459 966 ft 146 kts 101°
2026-04-29 14:54 25.98463 -77.36375 703 ft 138 kts 86°
2026-04-29 14:54 25.98816 -77.35460 640 ft 127 kts 39°
2026-04-29 14:54 25.99646 -77.35421 583 ft 131 kts 325°
2026-04-29 14:54 26.00109 -77.36262 308 ft 130 kts 287°
2026-04-29 14:55 26.00212 -77.37143 195 ft 102 kts 270°
2026-04-29 14:55 26.00251 -77.37912 150 ft 100 kts 276°
2026-04-29 14:55 26.00350 -77.38677 85 ft 101 kts 278°
2026-04-29 14:55 26.00450 -77.39378 10 ft 79 kts 278°
2026-04-29 14:56 26.00514 -77.39862 8 ft 36 kts 280°
2026-04-29 14:56 26.00536 -77.39922 10 ft 3 kts 95°
2026-04-29 14:56 26.00529 -77.39877 8 ft 4 kts 97°
2026-04-29 14:56 26.00519 -77.39794 7 ft 12 kts 98°
2026-04-29 14:57 26.00512 -77.39735 7 ft 14 kts 95°
2026-04-29 14:57 26.00498 -77.39598 9 ft 9 kts 87°
2026-04-29 14:57 26.00498 -77.39590 9 ft 0 kts 87°
2026-04-29 15:08 26.00491 -77.39547 9 ft 28 kts 102°
2026-04-29 15:08 26.00397 -77.39021 120 ft 95 kts 99°
2026-04-29 15:09 26.00299 -77.38213 377 ft 115 kts 95°
2026-04-29 15:09 25.99983 -77.37415 747 ft 120 kts 135°
2026-04-29 15:09 25.99121 -77.37209 915 ft 146 kts 199°
2026-04-29 15:09 25.98525 -77.38092 1308 ft 144 kts 241°
2026-04-29 15:10 25.97787 -77.38872 1522 ft 154 kts 203°
2026-04-29 15:10 25.96730 -77.39227 1600 ft 160 kts 193°
2026-04-29 15:10 25.95630 -77.39578 1543 ft 169 kts 194°
2026-04-29 15:10 25.94472 -77.39806 1500 ft 169 kts 184°
2026-04-29 15:11 25.93299 -77.39926 1495 ft 170 kts 183°
2026-04-29 15:11 25.92123 -77.40046 1495 ft 170 kts 183°
2026-04-29 15:11 25.90965 -77.40170 1496 ft 168 kts 183°
2026-04-29 15:11 25.89800 -77.40291 1494 ft 168 kts 184°
2026-04-29 15:12 25.88635 -77.40413 1495 ft 168 kts 183°
2026-04-29 15:12 25.87845 -77.40498 1495 ft 169 kts 184°
2026-04-29 15:12 25.86287 -77.40651 1494 ft 170 kts 184°
2026-04-29 15:12 25.85108 -77.40762 1493 ft 170 kts 183°
2026-04-29 15:13 25.83938 -77.40877 1495 ft 169 kts 183°
2026-04-29 15:13 25.82772 -77.40997 1492 ft 167 kts 183°
2026-04-29 15:13 25.81612 -77.41118 1496 ft 168 kts 183°
2026-04-29 15:13 25.80442 -77.41244 1494 ft 170 kts 184°
2026-04-29 15:14 25.79261 -77.41357 1494 ft 170 kts 183°
2026-04-29 15:14 25.78083 -77.41479 1490 ft 169 kts 184°
2026-04-29 15:14 25.76931 -77.41591 1490 ft 168 kts 183°
2026-04-29 15:14 25.75760 -77.41700 1490 ft 169 kts 183°
2026-04-29 15:15 25.74585 -77.41814 1495 ft 170 kts 183°
2026-04-29 15:15 25.73407 -77.41929 1496 ft 170 kts 183°
2026-04-29 15:15 25.72236 -77.42046 1494 ft 168 kts 184°
2026-04-29 15:15 25.71070 -77.42163 1494 ft 168 kts 183°
2026-04-29 15:16 25.69908 -77.42294 1492 ft 168 kts 183°
2026-04-29 15:16 25.68734 -77.42422 1492 ft 170 kts 183°
2026-04-29 15:16 25.67559 -77.42553 1491 ft 170 kts 184°
2026-04-29 15:16 25.66779 -77.42632 1490 ft 170 kts 184°
2026-04-29 15:17 25.65605 -77.42742 1491 ft 168 kts 183°
2026-04-29 15:17 25.64442 -77.42861 1489 ft 168 kts 183°
2026-04-29 15:17 25.63282 -77.42988 1490 ft 167 kts 183°
2026-04-29 15:17 25.62118 -77.43115 1491 ft 168 kts 183°
2026-04-29 15:18 25.60954 -77.43245 1492 ft 168 kts 184°
2026-04-29 15:18 25.59784 -77.43367 1490 ft 169 kts 184°
2026-04-29 15:18 25.58617 -77.43492 1487 ft 167 kts 183°
2026-04-29 15:18 25.57458 -77.43624 1487 ft 168 kts 183°
2026-04-29 15:19 25.56294 -77.43748 1487 ft 168 kts 184°
2026-04-29 15:19 25.55136 -77.43861 1489 ft 170 kts 183°
2026-04-29 15:19 25.53964 -77.43979 1489 ft 168 kts 183°
2026-04-29 15:19 25.52800 -77.44097 1535 ft 165 kts 183°
2026-04-29 15:20 25.51675 -77.44218 1688 ft 161 kts 183°
2026-04-29 15:20 25.50558 -77.44348 1835 ft 161 kts 183°
2026-04-29 15:20 25.49439 -77.44477 1981 ft 161 kts 184°
2026-04-29 15:20 25.48319 -77.44595 2107 ft 162 kts 183°
2026-04-29 15:21 25.47179 -77.44716 2108 ft 166 kts 184°
2026-04-29 15:21 25.46015 -77.44828 2110 ft 168 kts 183°
2026-04-29 15:21 25.44844 -77.44947 2115 ft 169 kts 183°
2026-04-29 15:21 25.43667 -77.45075 2115 ft 170 kts 184°
2026-04-29 15:22 25.42488 -77.45199 2115 ft 170 kts 183°
2026-04-29 15:22 25.41312 -77.45325 2114 ft 169 kts 184°
2026-04-29 15:22 25.40156 -77.45443 2118 ft 169 kts 182°
2026-04-29 15:22 25.38980 -77.45572 2118 ft 170 kts 183°
2026-04-29 15:23 25.37805 -77.45695 2117 ft 169 kts 184°
2026-04-29 15:23 25.36631 -77.45823 2114 ft 169 kts 184°
2026-04-29 15:23 25.35463 -77.45942 2112 ft 168 kts 184°
2026-04-29 15:23 25.34296 -77.46062 2111 ft 168 kts 183°
2026-04-29 15:24 25.33132 -77.46189 2113 ft 168 kts 183°
2026-04-29 15:24 25.31971 -77.46319 2114 ft 168 kts 183°
2026-04-29 15:24 25.30806 -77.46458 2122 ft 169 kts 184°
2026-04-29 15:24 25.29630 -77.46597 2122 ft 170 kts 183°
2026-04-29 15:25 25.28451 -77.46734 2124 ft 170 kts 182°
2026-04-29 15:25 25.27274 -77.46874 2124 ft 170 kts 184°
2026-04-29 15:25 25.26095 -77.47008 2123 ft 170 kts 183°
2026-04-29 15:25 25.24922 -77.47137 2125 ft 169 kts 183°
2026-04-29 15:26 25.23750 -77.47263 2124 ft 168 kts 184°
2026-04-29 15:26 25.22599 -77.47386 2125 ft 169 kts 183°
2026-04-29 15:26 25.21428 -77.47512 2125 ft 168 kts 183°
2026-04-29 15:26 25.20260 -77.47647 2131 ft 169 kts 183°
2026-04-29 15:27 25.19087 -77.47782 2129 ft 169 kts 184°
2026-04-29 15:27 25.18203 -77.47878 2129 ft 170 kts 182°
2026-04-29 15:33 25.18160 -77.47883 2131 ft 170 kts 182°
2026-04-29 15:33 25.16983 -77.48016 2129 ft 170 kts 184°
2026-04-29 15:33 25.15822 -77.48033 2128 ft 169 kts 174°
2026-04-29 15:33 25.14640 -77.47924 2050 ft 172 kts 173°
2026-04-29 15:34 25.13448 -77.47819 1974 ft 171 kts 173°
2026-04-29 15:34 25.12260 -77.47713 1893 ft 172 kts 173°
2026-04-29 15:34 25.11072 -77.47607 1825 ft 171 kts 173°
2026-04-29 15:34 25.09911 -77.47395 1750 ft 168 kts 155°
2026-04-29 15:35 25.08987 -77.46649 1672 ft 162 kts 133°
2026-04-29 15:35 25.08445 -77.45579 1275 ft 162 kts 110°
2026-04-29 15:35 25.08137 -77.44421 903 ft 150 kts 110°
2026-04-29 15:35 25.07767 -77.43358 728 ft 148 kts 112°
2026-04-29 15:36 25.07372 -77.42321 547 ft 147 kts 112°
2026-04-29 15:36 25.07017 -77.41247 359 ft 148 kts 106°
2026-04-29 15:36 25.07014 -77.40159 380 ft 145 kts 75°
2026-04-29 15:36 25.07381 -77.39131 411 ft 146 kts 70°
2026-04-29 15:37 25.07659 -77.38078 457 ft 141 kts 83°
2026-04-29 15:37 25.07776 -77.37002 488 ft 141 kts 86°
2026-04-29 15:37 25.07862 -77.35915 514 ft 143 kts 93°
2026-04-29 15:37 25.07799 -77.34815 523 ft 144 kts 97°
2026-04-29 15:38 25.07859 -77.33718 498 ft 147 kts 78°
2026-04-29 15:38 25.08179 -77.32648 487 ft 146 kts 74°
2026-04-29 15:38 25.08503 -77.31591 524 ft 140 kts 83°
2026-04-29 15:38 25.08084 -77.30746 468 ft 144 kts 152°
2026-04-29 15:39 25.07178 -77.30996 480 ft 140 kts 228°
2026-04-29 15:39 25.06768 -77.31975 527 ft 143 kts 260°
2026-04-29 15:39 25.06802 -77.33070 650 ft 140 kts 269°
2026-04-29 15:39 25.06690 -77.34117 782 ft 142 kts 255°
2026-04-29 15:40 25.06454 -77.35199 820 ft 148 kts 246°
2026-04-29 15:40 25.05872 -77.36134 756 ft 152 kts 224°
2026-04-29 15:40 25.05245 -77.37082 708 ft 155 kts 244°
2026-04-29 15:40 25.04875 -77.38190 732 ft 154 kts 249°
2026-04-29 15:41 25.04515 -77.39294 689 ft 151 kts 249°
2026-04-29 15:41 25.04262 -77.40420 664 ft 151 kts 250°
2026-04-29 15:41 25.03922 -77.41519 606 ft 152 kts 248°
2026-04-29 15:41 25.03635 -77.42592 489 ft 138 kts 261°
2026-04-29 15:42 25.03611 -77.43550 460 ft 119 kts 266°
2026-04-29 15:42 25.03609 -77.44417 347 ft 109 kts 266°
2026-04-29 15:42 25.03598 -77.45256 190 ft 111 kts 266°
2026-04-29 15:42 25.03599 -77.46087 54 ft 104 kts 268°
2026-04-29 15:43 25.03598 -77.46793 10 ft 82 kts 267°
2026-04-29 15:43 25.03591 -77.47347 6 ft 65 kts 268°
2026-04-29 15:43 25.03593 -77.47673 6 ft 22 kts 269°
2026-04-29 15:43 25.03591 -77.47835 5 ft 28 kts 270°
2026-04-29 15:44 25.03590 -77.48102 4 ft 38 kts 269°
2026-04-29 15:44 25.03666 -77.48176 5 ft 20 kts 360°
2026-04-29 15:44 25.03781 -77.48175 5 ft 9 kts
2026-04-29 15:44 25.03853 -77.48119 5 ft 11 kts 45°
2026-04-29 15:45 25.03862 -77.48109 5 ft 0 kts 45°